Regional Weather Roundup
Issued by NWS Wakefield, VA

Home | Current Version | Previous Version | Graphics & Text | Print | Product List | Glossary On
Versions: 1 2 3 4 5 6 7 8 9 10 11 12 13 14 15 16 17 18 19 20 21 22 23 24 25 26 27 28 29 30 31 32 33 34 35 36 37 38 39 40 41 42 43 44 45 46 47 48 49 50
000
ASUS41 KAKQ 170710
RWRAKQ

REGIONAL WEATHER ROUNDUP
NATIONAL WEATHER SERVICE WAKEFIELD VA
300 AM EDT WED SEP 17 2014

Note: "fair" indicates few or no clouds below 12,000 feet with no
significant weather and/or obstructions to visibility. * = Denotes
station may not report precipitation (e.g., rain,snow,etc.),
thunder or fog.

VAZ042-051-052>054-056-170800-
NORTHERN VIRGINIA

CITY           SKY/WX    TMP DP  RH WIND       PRES   REMARKS
WASH NATIONAL  PTCLDY    62  51  67 N6        30.05S
DULLES         CLEAR     54  50  86 NW3       30.06S
FORT BELVOIR   CLEAR     54  53  94 W2        30.05F
QUANTICO       CLEAR     57  53  86 NW7       30.05S
FREDERICKSBRG* CLEAR     56  55  96 CALM      30.03F
STAFFORD*      CLEAR     52  52 100 CALM      30.08S
WARRENTON      PTCLDY    48  48 100 CALM      30.05S FOG
CULPEPER*      CLEAR     54  52  94 N3        30.06S
MANASSAS*      CLEAR     52  52 100 CALM      30.05F
LEESBURG*      CLEAR     54  54 100 CALM      30.06F
WINCHESTER     CLEAR     50  46  87 W3        30.07F
FRONT ROYAL*   SUNNY     48  46  93 CALM      30.06F
LURAY*         PTSUNNY   52  52 100 CALM      30.07F
$$

VAZ048-049-060>072-079>083-170800-
CENTRAL AND SOUTH CENTRAL VIRGINIA...AND NORTH CENTRAL NORTH CAROLINA

CITY           SKY/WX    TMP DP  RH WIND       PRES   REMARKS
RICHMOND       MOCLDY    64  56  75 N5        30.01F
CHESTERFIELD*  CLOUDY   N/A N/A N/A CALM      30.02F
PETERSBURG*    CLOUDY    66  57  73 N3        30.02S
HANOVER        PTCLDY    61  56  83 CALM      30.04S
TAPPAHANNOCK*  PTCLDY    60  56  88 CALM      30.02F
CHARLOTTSVILLE CLEAR     56  52  86 N3        30.04F
ORANGE*        CLEAR     55  50  82 CALM      30.06F
LOUISA*        CLEAR     57  52  82 N6        30.03F
FARMVILLE*     CLOUDY    63  55  77 N6        30.01S
CREWE*         CLOUDY    67  59  77 N3        30.02S
FORT PICKETT*  CLOUDY    64  59  82 N5        30.02S
LUNENBURG*     CLOUDY    66  61  85 CALM      30.01S
SOUTH HILL*    CLOUDY    68  64  88 CALM      30.05S
LAWRENCEVILLE* CLOUDY    66  63  90 CALM      30.00S
ROANOKE RAPIDS CLOUDY    64  63  94 NE3       29.98F
RALEIGH        CLOUDY    69  66  90 CALM      29.97F
$$

VAZ088>098-170800-
SOUTHEAST VIRGINIA

CITY           SKY/WX    TMP DP  RH WIND       PRES   REMARKS
NORFOLK        CLOUDY    71  62  73 E9        29.98S
VIRGINIA BEACH CLOUDY    70  63  78 NE7       29.98S
NORFOLK NAVAL  CLOUDY    72  62  71 NE9       29.99F
WEST POINT*    MOCLDY    66  59  77 CALM      30.02F
NEWPORT NEWS   CLOUDY    69  63  81 CALM      30.00R
LANGLEY AFB    CLOUDY    69  63  81 E12       29.98S
FORT EUSTIS    CLOUDY    67  67 100 E1        29.98S
WILLIAMSBURG*  CLOUDY    70  63  78 CALM      30.00F
HR EXEC AP*    CLOUDY    68  57  68 NE5       30.00F
FRANKLIN*        N/A     66  61  82 NE3       29.99F
WAKEFIELD      CLOUDY    67  62  84 CALM      30.01R
$$

VAZ020-022-025-037-045-170800-
WEST CENTRAL AND SOUTHWEST VIRGINIA

CITY           SKY/WX    TMP DP  RH WIND       PRES   REMARKS
STAUNTON*      PTCLDY    56  50  79 CALM      30.08F
HOT SPRINGS VA MOCLDY    50  35  55 E7        30.12F
LYNCHBURG      MOCLDY    61  53  75 N6        30.06R
DANVILLE       CLOUDY    66  59  78 NE6       30.01R
SOUTH BOSTON*  NOT AVBL
MARTINSVILLE   MOCLDY    59  59 100 CALM      30.05S
ROANOKE        MOCLDY    64  53  67 NE6       30.06F
BLACKSBURG     CLOUDY    61  59  94 NE3       30.08F
DUBLIN*        CLOUDY    57  56  99 CALM      30.08F
MARION*        MOCLDY    57  55  95 CALM      30.10F FOG
HILLSVILLE*    CLOUDY    56  55  96 W10       30.09F
RICHLANDS*     PTSUNNY   59  56  92 E3        30.08F
WISE*          CLOUDY    55  55 100 CALM      30.09S FOG
ABINGDON*      MOCLDY    60  58  92 CALM      30.06S
$$

MDZ021>025-VAZ099-100-170800-
SOUTHERN MARYLAND AND THE DELMARVA PENINSULA

CITY           SKY/WX    TMP DP  RH WIND       PRES   REMARKS
PATUXENT RIVER PTCLDY    63  54  72 NE6       30.02F
BAY BRIDGE APT   N/A     61  54  77 CALM      30.03F
LEONARDTOWN    PTCLDY    55  52  88 CALM      30.04S
DOVER          CLEAR     54  54  99 N6        30.01S
GEORGETOWN     CLEAR     58  54  86 VRB3      30.02S
EASTON         CLEAR     58  57  96 CALM      30.06F
CAMBRIDGE      PTCLDY    61  54  77 NE5       30.01F
SALISBURY      PTCLDY    62  55  77 CALM      30.01F
OCEAN CITY     MOCLDY    60  57  89 CALM      30.01S
WALLOPS ISLAND PTCLDY    62  57  83 N6        30.01F
ACCOMACK*      MOCLDY    61  54  77 NE5       29.99F
$$

NCZ012>017-030>032-170800-
EASTERN NORTH CAROLINA

CITY           SKY/WX    TMP DP  RH WIND       PRES   REMARKS
ELIZABETH CITY CLOUDY    70  65  84 N3        29.97S
AHOSKIE*       CLOUDY    66  64  91 N5        29.98F
EDENTON*       NOT AVBL
CURRITUCK*     CLOUDY    72  60  66 NE3       29.97F
KILL DEVIL HLS CLOUDY    72  64  75 E3        29.95F
MANTEO         CLOUDY    71  65  80 NE6       29.95F
CAPE HATTERAS  MOCLDY    69  66  90 E6        29.94S
TARBORO*       CLOUDY    68  65  90 CALM      29.97S
GOLDSBORO      CLOUDY    70  69  98 W5        29.94S
WASHINGTON     CLOUDY    69  65  87 E7        29.93F
GREENVILLE     CLOUDY    70  66  88 E6        29.96S
NEW BERN       CLOUDY    74  70  87 CALM      29.94F
WILMINGTON     LGT RAIN  68  66  93 W8        29.92F
$$

VAZ048-170800-
ELSEWHERE

CITY           SKY/WX    TMP DP  RH WIND       PRES   REMARKS
HARRISBURG PA  PTCLDY    54  50  86 N3        30.05S
BALTIMORE      CLEAR     53  51  93 CALM      30.03F
ANNAPOLIS      CLEAR     61  57  87 CALM      30.03S
ANDREWS AFB    CLEAR     59  52  77 N2        30.04S
WILMINGTON DE  CLEAR     53  51  93 N5        30.04F
PHILADELPHIA   CLEAR     59  51  75 NW6       30.04S
WILDWOOD NJ*   CLEAR     57  52  82 N6        30.02F
ATLANTIC CITY  CLEAR     53  51  93 N6        30.02F
HENDERSON NC   CLOUDY    65  62  87 NE6       29.99F
GREENSBORO     PTCLDY    65  63  93 N5        30.00S
ROCKY MOUNT    CLOUDY    70  66  87 N8        29.96S
FAYETTEVILLE   LGT RAIN  66  65  96 W6        29.98S
CHARLOTTE      MOCLDY    64  62  93 N3        29.99F
$$

VAZ100-170800-
MARINE

STATION/POSITION TIME  TEMP    WIND        PRES    WAVE   SWELL
                       AIR SEA DIR/SP/G            HT/PER HT/PER
                 (UTC) (F)     (DEG/KT/KT) (MB)    (FT/S) (FT/S)
44066 TX TWR #4  0700   67 74  360/ 12/ 14 1015.4F   3/13   2/13
CAPE MAY NJ      0700   61 76   20/  2/  5 1015.9F
LEWES DE         0700   68 72   40/ 12/ 14 1015.9F
15NM E FENWICK I 0700   69 72              1015.4F   3/13
OCEAN-CITY-INLET 0700   65 72  340/  5/  5 1015.6F
WACHAPREAGUE VA  0700   66 75  350/  2/  4 1015.9R
THOMAS POINT MD  0700   66 74   60/  8/  9 1017.8F
GOOSES REEF MD   0700   68      60/ 12/ 16 1017.0F
COVE POINT MD    0700   67      50/ 10/ 13 1016.4R
SOLOMONS ISLAND  0700      76                N/A
BISHOPS HEAD MD  0700   65 72   40/  8/ 11 1016.0R
PINEY POINT MD   0700           50/  5/  5   N/A
POTOMAC MD       0700   70      40/ 10/ 12 1015.6S
CAMBRIDGE MD     0700   64 75   30/  7/  8 1016.1F
LEWISETTA VA     0700   69 74   40/  7/ 11 1016.0S
RAPPAHANNOCK LGT 0700           30/ 15/ 16 1016.1R
STINGRAY PT      0700   71      50/ 14/ 16   N/A
YORK RVR RNG VA  0700   71      90/ 12/ 15 1015.0F
YORKTOWN VA      0700   71 77   70/ 11/ 13 1015.3S
JAMESTOWN VA     0700   68      30/  4/  6   N/A
DOMINION TERM VA 0700   70      30/  3/  5 1015.6S
KIPTOPEKE VA     0700      79   70/  4/  5   N/A
CHES BAY BRIDGE  0700   71 76   50/ 15/ 17 1014.7R
CAPE HENRY VA    0700   70      30/ 13/ 14 1014.1R
CHESAPEAKE LGHT  0600   72      70/ 12/ 13 1015.7F
WILLOUBY STN VA  0700   71      60/ 11/ 13 1014.2S
S CRANEY ISL VA  0700           30/  9/ 11 1015.0F
CAPE HENRY BUOY  0700      75                N/A     3/13   2/13
1ST LANDING BUOY 0700   71      40/ 14/ 14 1015.0S
CAPE CHARLES BUO 0700      75                N/A     3/13   3/13
OFFSHORE WE BUOY 0600      75                N/A     3/17   3/17
64NM E OF VA BCH 0700   74 77   70/  8/ 10 1014.5R   2/14   2/14
DUCK PIER NC     0700   74 77   60/  9/ 10 1013.9F
44100 DUCK FRF   0700      75                N/A     3/15   2/15
44056 DUCK FRF   0700                        N/A     2/15   2/15
OREGON INLET NC  0700   74 76   40/  9/ 11 1014.0F
HATTERAS NC      0700   73 80   60/  5/  7 1013.7F
DIAMOND SHLS NC  0700   76      20/  8/ 12 1013.5F   3/13   2/13
CAPE LOOKOUT NC  0600   72     350/ 13/ 16 1013.5F
$$



USA.gov is the U.S. government's official web portal to all federal, state and local government web resources and services.